Tracking 20083 objects as of 9-Dec-2019
HD Live streaming from Space Station
objects crossing your sky now

ORBCOMM FM 38

Track ORBCOMM FM 38 now!
10-day predictions
ORBCOMM FM 38 is classified as:


NORAD ID: 33060
Int'l Code: 2008-031A
Perigee: 652.6 km
Apogee: 660.9 km
Inclination: 48.4 °
Period: 97.7 minutes
Semi major axis: 7027 km
RCS: 1.1405 m2 (large)
Launch date: June 19, 2008
Source: ORBCOMM (ORB)
Launch site: KAPUSTIN YAR MISSILE AND SPACE COMPLEX (KYMTR)

This spacecraft is one of the 5 ORBCOMM satellites launched on Jun 19, 2008 designed to replenish the company's aging constellation.
aabbcc
Your satellite tracking list
Your tracking list is empty




NASA's NSSDC Master Catalog

Two Line Element Set (TLE):
1 33060U 08031A   19342.78463340 -.00000080  00000-0  18585-4 0  9998
2 33060  48.4427 121.9403 0005942  73.8593 286.2974 14.73597111616828
Source of the keplerian elements: AFSPC